Temperature
2 3 3 3 2 2 2 2 3 4 4 3 3 3 3 3 2 2 1 1 0 -0 -1 -1 -1 -1 -1 -1 -1 -1 -1 -1 -2 -2 -2 -2 -2 -2 -2 -2 -2 -2 -2 -2
1 2 2 2 2 2 2 2 2 2 2 3 3 3 3 2 2 1 1 0 -0 -1 -1 -1 -1 -1 -2 -2 -2 -2 -2 -2 -2 -2 -2 -2 -2 -2 -2 -2 -2 -2 -2 -2
2 1 1 1 1 1 1 1 1 1 1 2 1 1 1 1 1 0 -0 -1 -1 -1 -1 -1 -2 -2 -2 -2 -2 -2 -2 -2 -2 -3 -3 -2 -3 -3 -3 -3 -3 -3 -3 -3
1 1 1 2 2 1 1 0 0 0 0 1 1 1 1 1 -0 -0 -1 -1 -1 -2 -2 -2 -2 -2 -2 -3 -3 -3 -3 -3 -3 -3 -3 -3 -3 -3 -3 -3 -3 -3 -3 -3
0 1 1 2 1 0 -0 -0 -0 -0 -0 0 0 -0 -0 -0 -1 -1 -2 -2 -2 -2 -2 -2 -3 -3 -3 -3 -3 -3 -3 -3 -3 -3 -3 -3 -3 -3 -4 -4 -4 -4 -4 -4
0 1 1 2 -0 -0 -0 -0 -0 -0 -1 -1 -1 -2 -2 -1 -2 -2 -2 -2 -2 -2 -3 -3 -3 -3 -3 -4 -4 -4 -4 -4 -4 -4 -4 -4 -4 -4 -4 -4 -4 -4 -4 -4
-0 0 1 -0 -1 -1 0 0 -1 -1 -1 -1 -2 -2 -2 -2 -2 -3 -3 -3 -3 -3 -3 -3 -3 -3 -4 -4 -4 -4 -4 -4 -4 -4 -4 -4 -4 -4 -4 -4 -4 -4 -4 -4
-1 -0 0 -2 -2 -1 -1 -1 -1 -1 -1 -2 -2 -2 -3 -3 -3 -3 -3 -3 -3 -3 -3 -4 -4 -4 -4 -4 -4 -4 -4 -5 -5 -5 -5 -5 -5 -5 -5 -5 -5 -5 -5 -5
-1 -0 -1 -1 -1 -0 -1 -1 -1 -1 -2 -2 -3 -3 -3 -3 -3 -4 -4 -4 -4 -4 -4 -4 -4 -4 -4 -5 -5 -5 -5 -5 -5 -5 -5 -5 -5 -5 -5 -5 -5 -5 -5 -6
-2 -2 -1 -1 -1 -1 -1 -1 -1 -2 -2 -2 -3 -3 -3 -3 -4 -4 -4 -4 -4 -4 -4 -4 -5 -5 -5 -5 -5 -5 -5 -5 -5 -5 -5 -5 -6 -6 -6 -6 -6 -6 -6 -6
-3 -3 -1 -1 -1 -1 -1 -2 -2 -2 -2 -3 -3 -3 -4 -4 -4 -4 -4 -4 -4 -4 -5 -5 -5 -5 -5 -5 -5 -5 -5 -5 -5 -5 -6 -6 -6 -6 -6 -6 -6 -6 -6 -6
-2 -2 -2 -1 -1 -1 -2 -2 -2 -2 -3 -3 -3 -3 -4 -4 -4 -4 -4 -5 -5 -5 -5 -5 -5 -5 -5 -5 -6 -6 -6 -6 -6 -6 -6 -6 -6 -6 -6 -6 -6 -6 -6 -6
-1 -1 -1 -1 -1 -2 -2 -2 -2 -3 -3 -3 -3 -4 -4 -4 -4 -4 -5 -5 -5 -5 -5 -5 -5 -5 -6 -6 -6 -6 -6 -6 -6 -6 -7 -7 -7 -7 -6 -6 -6 -6 -6 -6
-1 -2 -2 -2 -2 -2 -2 -3 -3 -3 -3 -4 -4 -4 -4 -4 -4 -5 -5 -5 -5 -5 -5 -5 -6 -6 -6 -6 -6 -6 -6 -7 -7 -7 -7 -7 -7 -7 -7 -7 -7 -6 -6 -6
-2 -2 -2 -3 -3 -3 -3 -3 -3 -3 -4 -4 -4 -4 -5 -5 -5 -5 -5 -5 -5 -5 -5 -6 -6 -6 -6 -6 -6 -6 -7 -7 -7 -7 -7 -7 -7 -7 -7 -7 -7 -7 -7 -6
-2 -2 -3 -3 -3 -3 -4 -4 -4 -4 -4 -4 -4 -5 -5 -5 -5 -5 -5 -5 -5 -6 -6 -6 -6 -6 -6 -6 -7 -7 -7 -7 -7 -7 -7 -7 -8 -8 -8 -8 -7 -7 -7 -7
-3 -3 -3 -4 -4 -4 -4 -4 -4 -4 -4 -5 -5 -5 -5 -5 -5 -5 -5 -6 -6 -6 -6 -6 -6 -6 -7 -7 -7 -7 -7 -7 -7 -7 -8 -8 -8 -8 -8 -8 -8 -8 -7 -7
-3 -3 -3 -4 -4 -4 -4 -4 -4 -4 -5 -5 -5 -5 -5 -5 -5 -6 -6 -6 -6 -6 -6 -6 -6 -7 -7 -7 -7 -7 -7 -7 -8 -8 -8 -8 -8 -8 -8 -8 -8 -8 -8 -8
-3 -3 -3 -4 -4 -4 -4 -4 -4 -5 -5 -5 -5 -5 -5 -6 -6 -6 -6 -6 -6 -6 -6 -6 -7 -7 -7 -7 -7 -7 -7 -8 -8 -8 -8 -8 -8 -8 -8 -8 -8 -8 -8 -8
-3 -4 -4 -4 -4 -4 -4 -4 -5 -5 -5 -5 -5 -6 -6 -6 -6 -6 -6 -6 -6 -6 -6 -7 -7 -7 -7 -7 -7 -8 -8 -8 -8 -8 -8 -8 -8 -8 -8 -8 -8 -8 -8 -8
-4 -4 -4 -4 -4 -4 -5 -5 -5 -5 -5 -5 -6 -6 -6 -6 -6 -7 -7 -7 -7 -7 -7 -7 -7 -7 -7 -7 -8 -8 -8 -8 -8 -8 -8 -9 -9 -9 -9 -9 -9 -9 -9 -8
-4 -4 -4 -4 -5 -5 -5 -5 -5 -5 -5 -6 -6 -6 -6 -6 -7 -7 -7 -7 -7 -7 -7 -7 -7 -7 -8 -8 -8 -8 -8 -8 -8 -8 -9 -9 -9 -9 -9 -9 -9 -9 -9 -9
-5 -5 -5 -5 -5 -5 -5 -6 -6 -6 -6 -6 -6 -6 -6 -7 -7 -7 -7 -7 -7 -7 -7 -7 -7 -8 -8 -8 -8 -8 -8 -8 -8 -8 -9 -9 -9 -9 -9 -9 -9 -9 -9 -9
-5 -5 -5 -5 -6 -6 -6 -6 -6 -6 -6 -6 -6 -7 -7 -7 -7 -7 -7 -7 -7 -7 -7 -8 -8 -8 -8 -8 -8 -8 -8 -8 -8 -8 -9 -9 -9 -9 -9 -9 -9 -9 -9 -9
-5 -6 -6 -6 -6 -6 -6 -6 -6 -6 -6 -7 -7 -7 -7 -7 -7 -8 -8 -8 -8 -8 -8 -8 -8 -8 -8 -8 -8 -8 -8 -9 -9 -9 -9 -9 -9 -9 -9 -9 -9 -9 -9 -9
-6 -6 -6 -6 -6 -7 -7 -7 -7 -7 -7 -7 -7 -7 -8 -8 -8 -8 -8 -8 -8 -8 -8 -8 -8 -8 -8 -8 -8 -8 -9 -9 -9 -9 -9 -9 -9 -9 -9 -9 -9 -9 -9 -9
-6 -7 -7 -7 -7 -7 -7 -7 -7 -7 -7 -7 -7 -8 -8 -8 -8 -8 -8 -8 -8 -8 -8 -8 -8 -8 -8 -8 -8 -9 -9 -9 -9 -9 -9 -9 -9 -9 -9 -9 -9 -9 -9 -9
Wind_Speed
5 5 3 5 6 7 9 8 7 7 6 7 5 4 3 3 2 3 3 2 2 2 2 1 1 1 1 1 0 0 1 1 1 1 1 1 2 2 2 2 3 3 3 3
4 4 4 6 8 9 9 8 9 9 10 6 4 4 4 4 3 3 4 4 4 3 2 1 1 1 1 1 1 1 1 1 1 1 1 1 2 2 2 2 2 3 3 3
3 2 4 7 8 9 6 6 6 9 7 4 5 5 6 5 4 4 5 4 4 3 2 1 1 1 1 1 1 1 1 1 1 1 1 2 2 2 2 2 2 3 3 3
2 1 6 5 1 4 5 5 5 5 5 4 5 6 5 3 4 5 5 5 4 3 2 2 1 0 0 0 0 1 1 1 1 1 2 2 2 2 3 2 3 3 3 4
2 4 7 3 1 2 2 5 3 5 6 5 5 5 2 3 4 4 4 4 4 2 2 2 1 1 1 0 0 1 1 1 2 2 2 2 3 3 3 3 3 3 3 4
3 4 5 3 2 1 2 3 2 1 4 4 4 3 3 4 5 5 4 4 3 2 2 2 1 1 0 0 1 1 2 2 2 2 2 3 3 3 2 3 3 3 4 4
5 5 5 1 1 2 1 4 3 2 2 2 2 3 4 5 4 4 4 4 4 3 2 2 1 1 0 1 1 1 2 2 2 3 3 3 2 2 3 3 3 3 4 4
4 5 6 1 2 3 3 2 2 2 2 2 3 3 4 4 4 4 4 3 3 2 2 2 2 1 1 1 2 2 2 2 2 3 3 2 2 3 3 3 3 4 4 4
5 5 2 3 3 2 1 2 2 3 3 2 3 3 4 4 4 3 3 3 3 2 2 2 2 1 1 1 1 2 2 2 3 3 3 2 2 3 3 3 3 4 3 4
3 4 3 3 3 2 1 2 3 3 3 2 3 4 4 4 3 3 3 2 2 2 2 2 2 2 1 1 1 1 2 2 3 3 3 3 2 2 2 3 3 4 4 4
5 5 4 3 2 1 1 2 3 3 2 2 2 3 3 3 3 3 3 2 1 1 2 2 2 2 2 2 2 1 2 3 3 3 3 3 3 3 3 3 3 4 3 4
5 3 3 3 1 1 1 3 3 3 3 3 2 3 3 3 2 2 2 2 1 1 1 2 2 2 3 2 2 2 2 2 2 2 2 2 3 4 5 5 7 7 7 6
4 2 2 4 2 1 2 3 3 2 3 3 2 2 2 2 2 2 2 2 2 1 1 1 2 2 3 2 2 2 2 3 3 3 3 3 3 3 4 5 7 7 7 8
2 1 2 2 2 2 2 3 2 2 2 2 2 1 1 2 2 2 2 2 2 1 1 1 2 2 3 2 2 2 2 3 3 2 3 3 3 3 3 4 5 4 6 7
3 3 4 3 3 3 2 1 2 2 2 2 1 1 1 2 3 3 2 2 1 1 2 1 2 3 2 2 2 2 2 2 2 2 2 3 3 3 3 4 4 4 4 5
2 2 3 3 4 3 2 2 3 4 3 3 2 2 2 2 3 3 2 1 1 2 2 2 2 3 2 2 2 2 2 4 3 2 2 3 3 3 3 3 4 4 4 4
2 3 3 4 4 4 4 4 4 4 3 3 3 2 2 2 2 2 2 2 2 3 3 2 3 2 2 2 2 2 2 3 4 3 2 2 2 3 3 3 4 4 4 5
5 5 4 5 5 5 5 4 4 4 4 3 2 2 2 2 3 3 3 2 2 3 2 2 2 1 2 2 2 2 2 2 2 2 2 2 2 2 3 3 4 4 4 5
3 4 4 5 4 4 4 4 4 4 3 2 2 3 4 4 4 3 2 2 3 3 2 2 3 1 2 3 2 2 2 2 2 2 2 4 3 3 3 3 3 4 4 4
3 3 3 3 3 3 4 4 3 3 3 2 3 3 3 3 3 2 3 3 3 3 2 2 2 2 2 2 3 1 2 2 2 2 2 2 3 3 3 3 3 4 4 4
3 3 3 3 3 3 3 3 3 3 3 3 3 4 4 4 3 3 3 3 3 2 2 3 2 2 2 2 3 2 2 2 2 2 2 3 3 3 3 3 3 4 4 4
3 3 3 3 3 3 3 2 2 3 3 3 3 3 3 3 3 3 3 3 3 3 2 1 2 3 3 3 2 2 2 2 2 2 2 2 3 3 3 3 3 4 3 3
3 3 3 3 3 3 3 2 2 2 3 3 3 4 4 3 3 3 3 2 2 3 2 2 3 4 4 2 1 2 2 2 2 2 2 2 3 3 3 3 3 3 3 3
3 3 3 3 2 2 3 3 2 2 2 3 3 3 3 2 2 2 2 3 3 3 2 3 4 4 3 1 1 1 2 2 2 2 2 2 3 3 3 3 3 3 3 4
3 3 3 2 2 2 3 2 2 2 1 1 2 2 2 2 2 2 2 2 3 3 2 3 4 3 2 1 1 2 2 2 3 2 2 2 3 3 3 3 3 3 3 3
2 2 2 2 2 2 2 1 1 1 1 2 2 1 1 1 1 1 1 1 2 2 2 1 2 2 1 2 2 2 2 3 3 3 2 3 3 3 3 3 3 3 3 3
2 2 2 2 2 1 1 1 1 2 2 2 2 2 1 1 1 1 1 1 1 1 1 1 1 1 1 2 2 2 2 2 3 3 3 2 2 3 3 3 3 3 3 3
Wind_Direction
274 290 260 241 233 221 222 230 236 259 271 282 304 318 330 335 338 336 328 320 291 281 256 225 211 222 236 245 173 275 268 277 273 278 282 293 302 300 299 305 307 297 281 280
277 266 260 259 241 229 236 246 253 272 281 283 306 325 330 336 334 322 316 312 306 295 274 256 238 245 253 264 271 258 244 259 293 300 303 295 291 292 296 295 294 299 297 286
258 278 311 265 232 214 218 225 228 247 260 313 324 322 320 321 326 315 314 313 306 294 282 271 256 224 226 253 274 262 274 291 301 308 303 301 304 300 287 285 289 288 290 294
258 314 249 245 198 190 217 250 236 253 287 311 307 311 309 326 335 323 325 318 313 312 323 330 349 36 6 9 304 288 291 302 307 308 304 307 301 291 286 287 290 285 289 290
218 248 266 250 203 153 205 274 240 256 285 308 327 322 314 1 355 335 325 321 319 321 330 347 4 76 79 24 317 297 296 306 309 298 289 291 292 295 300 299 297 296 294 291
213 234 250 252 125 87 103 270 326 294 298 318 344 318 297 346 349 340 340 340 342 352 12 19 6 54 82 282 271 287 304 314 315 305 291 287 289 297 304 299 297 300 301 294
230 239 261 262 122 98 158 262 320 326 308 308 272 259 299 333 341 345 348 354 0 6 12 3 0 56 39 320 299 319 335 324 316 310 300 293 296 297 300 302 306 302 295 292
202 225 251 149 126 187 236 311 332 331 312 292 284 304 320 330 336 346 349 352 1 8 1 1 14 34 356 321 328 347 339 323 314 310 307 309 305 302 302 304 305 303 303 305
206 222 237 188 196 222 283 304 317 314 309 304 301 302 313 321 331 335 337 341 353 360 353 359 3 9 351 327 350 349 335 323 317 312 309 307 304 302 302 303 302 302 302 303
264 267 255 221 230 250 273 289 301 303 299 291 284 294 304 312 321 328 331 336 353 3 353 343 349 356 341 339 358 345 321 313 311 314 315 313 308 306 302 300 298 301 301 302
255 274 286 252 219 234 322 315 306 311 299 279 276 288 290 298 304 311 321 330 349 339 327 330 347 345 342 349 0 341 323 318 315 314 311 314 315 311 303 285 290 295 291 291
241 237 231 263 286 358 297 293 295 300 306 309 283 275 288 291 298 307 313 322 329 327 328 328 336 336 340 347 355 337 323 318 311 312 314 314 311 315 313 301 302 301 297 296
243 281 278 279 293 291 259 281 285 269 263 287 294 275 278 288 298 305 306 302 285 285 298 313 323 323 329 334 340 331 313 313 316 323 322 316 314 314 317 322 316 310 307 307
229 250 278 272 282 306 302 293 286 279 274 266 272 283 291 297 302 298 288 287 288 285 282 286 298 307 317 326 328 322 313 309 315 315 315 314 313 313 312 317 324 324 319 319
238 223 236 264 286 294 296 305 303 286 285 291 282 273 271 275 280 283 286 294 304 289 279 275 286 299 312 316 314 308 308 306 310 312 313 313 314 315 317 318 318 321 327 329
255 252 244 254 265 277 293 292 278 272 273 273 275 275 271 267 273 277 271 244 238 263 271 270 276 287 301 309 312 307 299 303 312 307 304 308 314 317 319 319 319 322 324 326
206 244 248 264 270 272 268 263 261 261 262 262 263 270 278 286 285 281 282 273 257 257 256 250 267 289 297 291 295 298 302 303 309 313 309 307 310 312 313 315 317 318 317 319
218 229 233 241 251 260 267 267 263 263 258 255 258 253 249 246 253 267 277 287 295 289 270 254 268 293 293 293 289 287 295 299 301 305 309 306 308 306 310 312 313 313 316 319
247 246 248 246 245 247 254 258 262 261 259 240 233 245 250 249 248 256 263 268 268 273 276 267 294 303 278 281 297 270 280 286 295 300 305 304 308 308 307 308 309 309 311 316
272 263 263 265 259 245 251 256 258 263 254 228 229 247 261 263 259 259 261 258 249 247 258 277 280 265 270 275 296 277 274 279 286 294 302 303 301 301 303 304 304 305 307 306
294 290 286 282 283 276 259 251 246 256 258 235 226 235 247 261 254 243 247 269 270 252 267 287 291 273 272 286 293 281 275 278 282 284 287 291 296 299 301 301 300 302 304 306
292 291 293 292 290 292 287 265 246 250 254 249 242 238 242 255 259 259 246 241 248 275 294 267 269 274 292 298 273 265 269 276 280 282 281 284 286 290 295 301 301 299 299 301
284 284 287 287 283 288 298 285 257 243 243 244 241 239 237 243 243 245 267 253 247 275 296 266 277 290 308 322 286 270 271 274 279 280 279 279 281 284 288 293 297 300 297 296
293 293 289 288 291 300 302 302 291 271 257 254 246 238 233 250 266 247 249 268 283 291 285 277 289 301 324 340 305 296 288 283 280 277 279 280 281 284 286 290 294 298 299 298
287 286 288 294 291 280 281 295 305 298 289 284 281 266 238 229 240 266 280 267 275 298 298 291 302 314 332 314 299 293 288 281 283 288 282 285 284 287 289 292 295 299 300 305
285 282 277 267 263 271 277 276 279 287 302 308 307 294 287 281 258 261 266 266 269 301 312 292 294 304 311 301 298 297 296 300 303 299 291 289 286 286 288 291 293 296 299 305
292 289 292 300 297 282 265 257 262 277 279 277 289 291 296 299 286 281 279 276 279 284 284 280 279 280 285 290 296 300 301 299 297 295 294 293 292 292 292 292 293 299 306 310
Height
1499 1496 1496 1497 1497 1498 1500 1497 1497 1489 1486 1484 1483 1482 1480 1479 1478 1478 1477 1476 1474 1473 1473 1472 1471 1471 1470 1470 1470 1470 1470 1469 1469 1468 1468 1467 1467 1466 1466 1465 1465 1465 1464 1464
1501 1497 1497 1496 1494 1494 1495 1494 1492 1489 1487 1482 1481 1481 1479 1478 1477 1476 1475 1474 1472 1471 1470 1469 1468 1468 1467 1467 1467 1467 1467 1467 1466 1466 1465 1465 1464 1463 1463 1463 1462 1462 1462 1461
1499 1498 1497 1496 1490 1490 1491 1490 1490 1489 1485 1481 1481 1479 1478 1477 1476 1475 1473 1472 1470 1469 1467 1466 1466 1465 1465 1465 1464 1464 1464 1464 1464 1463 1463 1462 1461 1461 1460 1460 1460 1459 1459 1458
1501 1502 1502 1487 1482 1483 1485 1485 1485 1483 1482 1481 1480 1478 1477 1475 1474 1472 1471 1469 1467 1466 1465 1464 1463 1463 1463 1462 1462 1462 1462 1461 1461 1461 1460 1459 1459 1458 1458 1457 1457 1456 1456 1455
1501 1499 1489 1484 1482 1483 1485 1484 1481 1481 1479 1479 1478 1476 1474 1473 1472 1471 1469 1467 1465 1464 1463 1462 1461 1461 1460 1460 1460 1460 1459 1459 1459 1458 1458 1457 1456 1456 1455 1455 1454 1453 1453 1452
1497 1496 1491 1482 1482 1481 1484 1484 1480 1478 1478 1477 1477 1477 1474 1472 1470 1469 1467 1465 1463 1462 1460 1459 1459 1459 1458 1458 1457 1457 1457 1457 1457 1456 1455 1455 1454 1453 1453 1452 1451 1451 1450 1450
1496 1493 1486 1482 1481 1482 1486 1483 1479 1477 1476 1476 1476 1476 1473 1470 1468 1467 1465 1463 1462 1460 1459 1458 1457 1457 1456 1456 1455 1455 1455 1455 1454 1454 1453 1452 1452 1451 1450 1449 1449 1448 1448 1447
1494 1492 1487 1482 1481 1482 1481 1478 1477 1476 1475 1474 1473 1472 1470 1468 1466 1464 1463 1461 1460 1459 1458 1457 1457 1456 1455 1454 1454 1454 1454 1453 1452 1452 1451 1450 1449 1449 1448 1447 1446 1445 1445 1444
1486 1484 1479 1478 1477 1477 1477 1476 1475 1474 1473 1472 1470 1469 1467 1466 1464 1462 1461 1460 1459 1458 1457 1456 1455 1455 1454 1453 1453 1452 1452 1451 1451 1450 1449 1448 1448 1447 1446 1445 1444 1443 1442 1441
1482 1478 1476 1475 1475 1475 1475 1474 1473 1472 1471 1469 1468 1467 1465 1464 1462 1461 1460 1458 1457 1456 1455 1455 1454 1453 1453 1452 1452 1451 1450 1450 1449 1448 1447 1447 1446 1445 1444 1443 1442 1441 1440 1439
1480 1476 1474 1472 1472 1472 1472 1472 1471 1469 1468 1467 1465 1464 1463 1461 1460 1459 1458 1457 1456 1455 1454 1453 1453 1452 1452 1451 1450 1449 1449 1448 1447 1446 1445 1445 1444 1443 1442 1441 1441 1440 1438 1437
1475 1472 1472 1471 1470 1470 1469 1469 1468 1467 1465 1464 1463 1461 1460 1459 1458 1457 1456 1455 1454 1454 1453 1452 1451 1451 1450 1450 1449 1448 1447 1446 1445 1445 1444 1443 1442 1441 1440 1440 1439 1437 1436 1436
1470 1469 1469 1468 1468 1467 1467 1466 1465 1464 1463 1461 1460 1459 1458 1457 1456 1455 1454 1453 1453 1452 1451 1451 1450 1449 1449 1448 1447 1446 1445 1444 1444 1443 1442 1441 1440 1439 1438 1437 1436 1435 1434 1433
1467 1467 1466 1465 1465 1465 1464 1463 1462 1461 1460 1459 1458 1457 1456 1455 1454 1453 1452 1452 1451 1450 1450 1449 1449 1448 1447 1446 1446 1445 1444 1443 1442 1441 1441 1440 1439 1438 1436 1435 1433 1432 1432 1431
1464 1464 1464 1463 1462 1462 1461 1460 1459 1458 1457 1456 1456 1455 1454 1452 1451 1451 1450 1450 1449 1449 1448 1448 1447 1446 1446 1445 1444 1443 1442 1441 1441 1440 1439 1438 1437 1436 1435 1434 1432 1430 1429 1429
1461 1460 1460 1460 1459 1458 1458 1457 1456 1455 1454 1453 1453 1452 1451 1450 1449 1449 1448 1448 1447 1446 1446 1445 1445 1445 1444 1443 1442 1441 1440 1440 1439 1438 1437 1437 1436 1435 1433 1432 1431 1429 1428 1427
1457 1457 1456 1456 1456 1455 1454 1454 1453 1452 1451 1451 1450 1450 1449 1448 1447 1447 1446 1446 1445 1445 1444 1443 1443 1442 1442 1441 1440 1439 1439 1438 1438 1437 1436 1435 1434 1433 1432 1430 1429 1428 1427 1426
1454 1454 1454 1453 1453 1452 1451 1451 1450 1449 1449 1448 1448 1447 1446 1445 1445 1444 1444 1443 1443 1443 1442 1442 1441 1440 1440 1439 1438 1438 1437 1436 1436 1435 1434 1433 1432 1431 1430 1429 1427 1426 1425 1424
1451 1451 1451 1450 1450 1449 1448 1448 1447 1447 1446 1445 1445 1444 1443 1443 1442 1442 1441 1441 1440 1440 1440 1440 1439 1438 1438 1437 1436 1436 1435 1434 1434 1433 1432 1431 1430 1429 1428 1427 1426 1425 1424 1422
1448 1448 1448 1447 1447 1446 1446 1445 1444 1444 1443 1443 1442 1441 1441 1440 1440 1439 1439 1438 1438 1438 1437 1437 1436 1436 1435 1435 1434 1434 1433 1432 1431 1431 1430 1429 1428 1427 1426 1425 1424 1423 1422 1421
1447 1446 1445 1444 1444 1443 1443 1442 1441 1441 1440 1440 1439 1438 1438 1438 1437 1437 1436 1436 1436 1435 1435 1435 1434 1434 1433 1432 1432 1431 1431 1430 1429 1429 1428 1427 1426 1425 1424 1423 1422 1421 1420 1419
1445 1444 1443 1442 1441 1440 1440 1439 1439 1438 1437 1437 1436 1436 1435 1435 1435 1435 1434 1434 1433 1433 1433 1432 1432 1431 1431 1430 1429 1429 1428 1428 1427 1427 1426 1425 1424 1423 1422 1421 1420 1420 1419 1418
1443 1442 1441 1440 1439 1438 1437 1437 1436 1435 1434 1434 1433 1433 1433 1432 1432 1432 1432 1432 1431 1431 1431 1430 1430 1430 1429 1428 1427 1427 1426 1426 1425 1425 1424 1423 1422 1421 1420 1419 1419 1418 1417 1416
1440 1439 1438 1437 1436 1435 1434 1434 1433 1433 1432 1432 1431 1431 1431 1430 1430 1430 1430 1430 1429 1429 1428 1428 1428 1427 1427 1426 1426 1425 1424 1424 1423 1423 1422 1421 1420 1419 1418 1417 1417 1416 1415 1414
1438 1437 1436 1435 1433 1433 1432 1431 1431 1430 1430 1429 1429 1429 1429 1428 1428 1428 1428 1428 1427 1427 1426 1426 1426 1425 1425 1424 1424 1423 1422 1422 1421 1420 1420 1419 1418 1417 1416 1416 1415 1414 1413 1412
1436 1435 1434 1433 1432 1431 1430 1429 1428 1428 1428 1427 1427 1427 1427 1426 1426 1426 1425 1425 1425 1425 1424 1424 1424 1423 1423 1422 1422 1421 1420 1420 1419 1418 1418 1417 1416 1415 1414 1414 1413 1412 1411 1410
1434 1432 1431 1430 1430 1429 1428 1427 1427 1426 1426 1426 1425 1425 1425 1424 1424 1424 1423 1423 1423 1423 1422 1422 1422 1421 1421 1420 1420 1419 1419 1418 1417 1416 1416 1415 1414 1413 1412 1412 1411 1410 1409 1408